Location: Mount Graham
(32.7016°N, 109.8912°W)
Time: 16:55:01
(UTC-07:00)

Cosmos 1340 - Visible Passes

Search period start: 28 September 2016 00:00
Search period end: 08 October 2016 00:00
Orbit: 507 x 511 km, 81.2° (Epoch: 28 September)

Date Brightness Start Highest point End Pass type
(mag) Time Alt. Az. Time Alt. Az. Time Alt. Az.
28 Sep 2.8 05:20:59 10° S 05:24:45 79° E 05:28:33 10° N visible
29 Sep 3.3 05:04:05 10° S 05:07:47 59° E 05:11:32 10° NNE visible
30 Sep 3.9 04:47:14 10° SSE 04:50:50 43° E 04:54:27 10° NNE visible
01 Oct 4.4 04:30:28 10° SSE 04:33:53 33° E 04:37:19 10° NNE visible
02 Oct 4.9 04:13:47 10° SSE 04:16:56 25° E 04:20:06 10° NE visible
02 Oct 4.4 05:50:32 10° WSW 05:52:38 14° WNW 05:54:45 10° NW visible
03 Oct 5.3 03:57:49 13° SE 04:00:00 20° E 04:02:48 10° NE visible
03 Oct 4.1 05:32:54 10° WSW 05:35:35 18° WNW 05:38:16 10° NNW visible
04 Oct 5.5 03:42:44 15° E 03:43:03 15° E 03:45:20 10° NE visible
04 Oct 3.8 05:17:43 22° W 05:18:31 23° WNW 05:21:37 10° NNW visible
05 Oct 6.0 03:27:17 11° ENE 03:27:17 11° ENE 03:27:35 10° ENE visible
05 Oct 3.7 05:02:15 27° NW 05:02:15 27° NW 05:04:52 10° NNW visible
06 Oct 4.4 04:46:32 21° NNW 04:46:32 21° NNW 04:48:02 10° N visible
07 Oct 5.1 04:30:39 13° N 04:30:39 13° N 04:31:09 10° N visible
